This demonstration page uses our WeatherBlox Daily Observations layout. Learn more.

Left ArrowRight Arrow

Hourly Observations for May 23, 2020

Temp ( °F °C ) Dew Point ( °F °C ) Humidity (%) Winds ( mph kmh ) Pressure ( in mb ) Visibility ( mi km ) Precip ( " mm )
12:53 am 00:53 Clear 58 14.4 36 2.2 44 44 NW 5 7 29.96 1015 10 16 0.00 0.00
1:53 am 01:53 Clear 61 16.1 34 1.1 36 36 NNW 9 15 29.96 1015 10 16 0.00 0.00
2:53 am 02:53 Clear 60 15.6 34 1.1 38 38 NNW 7 11 29.96 1015 10 16 0.00 0.00
3:53 am 03:53 Clear 58 14.4 36 2.2 44 44 NW 7 11 29.96 1015 10 16 0.00 0.00
4:53 am 04:53 Clear 56 13.3 37 2.8 49 49 WNW 3 6 29.96 1015 10 16 0.00 0.00
5:53 am 05:53 Sunny 54 12.2 38 3.3 55 55 WNW 6 9 29.96 1015 10 16 0.00 0.00
6:53 am 06:53 Sunny 60 15.6 37 2.8 42 42 NNW 8 13 29.97 1015 10 16 0.00 0.00
7:53 am 07:53 Sunny 63 17.2 37 2.8 38 38 N 8 13 29.98 1015 10 16 0.00 0.00
8:53 am 08:53 Sunny 66 18.9 37 2.8 34 34 NNW 9 15 29.98 1015 10 16 0.00 0.00
9:53 am 09:53 Sunny 70 21.1 37 2.8 30 30 NNW 12 19 29.97 1015 10 16 0.00 0.00
10:53 am 10:53 Sunny 73 22.8 38 3.3 28 28 N 10 17 29.96 1015 10 16 0.00 0.00
11:53 am 11:53 Sunny 77 25 39 3.9 26 26 NNE 9 15 29.95 1014 10 16 0.00 0.00
12:53 pm 12:53 Sunny 79 26.1 37 2.8 22 22 NNE 8 13 29.93 1013 10 16 0.00 0.00
1:53 pm 13:53 Sunny 81 27.2 32 0 17 17 N 12 19 29.91 1013 10 16 0.00 0.00
2:53 pm 14:53 Sunny 84 28.9 29 -1.7 13 13 NNE 8 13 29.89 1012 10 16 0.00 0.00
3:53 pm 15:53 Sunny 84 28.9 25 -3.9 11 11 N 9 15 29.88 1012 10 16 0.00 0.00
4:53 pm 16:53 Sunny 85 29.4 34 1.1 16 16 NNW 7 11 29.87 1011 10 16 0.00 0.00
5:53 pm 17:53 Sunny 84 28.9 36 2.2 18 18 NNW 6 9 29.86 1011 10 16 0.00 0.00
6:53 pm 18:53 Sunny 82 27.8 38 3.3 21 21 NW 3 6 29.85 1011 10 16 0.00 0.00
7:53 pm 19:53 Sunny 80 26.7 43 6.1 27 27 Calm 29.86 1011 10 16 0.00 0.00
8:53 pm 20:53 Clear 74 23.3 48 8.9 40 40 N 3 6 29.87 1012 10 16 0.00 0.00
9:53 pm 21:53 Clear 72 22.2 46 7.8 40 40 NNW 7 11 29.89 1012 10 16 0.00 0.00
10:53 pm 22:53 Clear 68 20 47 8.3 47 47 NNE 6 9 29.91 1013 10 16 0.00 0.00
11:53 pm 23:53 Clear 63 17.2 46 7.8 54 54 NNW 3 6 29.92 1013 10 16 0.00 0.00

Powered by AerisWeather